Weather in Monaghan

Ireland     54°14′51″N   6°58′15″W
temp.,
°C
wind,
m/s
gust,
m/s
humid.,
%
clouds,
%
prec.,
mm/h
press.,
hPa
HPBL,
m
26 october, tue
tue2601:00+8ssw51393100 0.4 1010523
04:00+8s71794100 1.6 1007874
07:00+11sw81696100 2.3 1006969
10:00+13sw81791100 0.1 10061210
13:00+14sw81692100 0.2 10061271
16:00+14sw91886100 0.0 10041287
19:00+15ssw91881100 0.1 10031306
22:00+14ssw92181100 0.1 10031216
27 october, wed
wed2701:00+14ssw92093100 2.0 10031202
04:00+14sw71591100 2.9 1004900
07:00+11sw61594100 2.9 1004676
10:00+13ssw61393100 0.0 1005861
13:00+13ssw51194100 1.2 1004664
16:00+13ssw41196100 1.0 1002652
19:00+13ssw3998100 3.8 1001537
22:00+13sw51194100 2.6 1001679
28 october, thu
thu2801:00+10sw41095100 2.6 1002573
04:00+9ssw3997100 0.0 1002325
07:00+8s2595100 0.0 1002111
10:00+9sse3896100 0.0 1001319
13:00+11se4995100 0.3 998488
16:00+11sse41094100 0.6 995688
19:00+11wsw2598100 1.4 995206
22:00+9sw3897100 0.0 995297
29 october, fri
fri2901:00+9ssw3897100 0.0 995297
04:00+8sw3699100 0.0 995236
07:00+6ssw269652 0.0 996142
10:00+7ssw3993100 0.0 996328
13:00+10ssw488792 0.0 996529
16:00+10s4887100 0.3 995713
19:00+7s389598 0.4 995205
22:00+7s269670 0.2 995162
30 october, sat
sat3001:00+6ssw279599 0.2 994181
04:00+5ssw39977 0.0 994215
07:00+4ssw311977 0.0 995295
10:00+6ssw31095100 0.0 996341
13:00+9ssw4988100 0.0 997485
16:00+9ssw488694 0.9 996444
19:00+6s229079 1.1 99621
22:00+5sse2292100 0.0 99619